Content
SEND FEEDBACK

Daily
Averages
Monthly
Summary
United States of America

ELGIN, OKLAHOMA


Home > North America > United States > Oklahoma
Elevation: 1188 feet     Latitude: 34 39N     Longitude: 098 24W

WEATHER
 
SELECT A DAY
Number of Records: 134,077;   Date Range: 1/1/95 - 8/28/14
 
SHARE

PRINT THIS DATA

[ ← Previous Day ]
WEATHER ALMANAC - JANUARY 31, 2013
[ Next Day → ]
[ °C ]   °F
Weather ElementAverageHighLow
Temperature39.9 °F59.4 °F (3:55 pm)27 °F (6:55 am)
Dewpoint24.2 °F30.6 °F (6:55 pm)18.7 °F (11:55 pm)
Humidity56.4 %78 % (7:55 am)29 % (3:55 pm)
Barometer30.16 in30.38 in (9:55 pm)30.06 in (1:55 am)
Wind Speed9 mph23 mph (8:55 pm)
Wind Gust29.9 mph (8:55 pm)
Weather ElementAverage
Visibility10 mi
Wind DirectionESE (100 °)

Weather ElementTotal
Precipitation---
Heating Degree Days21.8 (Base 65)
Averaged from 23 records on January 31, 2013
WEATHER CONDITIONS BREAKOUT
WIND DIRECTION BREAKOUT
WEATHER BY HOUR - JANUARY 31, 2013
[ °C ]   °F
Local TimeTemperatureDewpointHumidityBarometerVisibilityWind DirectionWind SpeedGust SpeedPrecipitationEventsConditions
1:55 AM31.6 °F19.6 °F61 %30.06 in10.0 miCalmClear
2:55 AM30.4 °F20.1 °F66 %30.06 in10.0 miCalmClear
3:55 AM30.2 °F21.2 °F69 %30.06 in10.0 miSouth (190°)4.6 mphClear
4:55 AM30.4 °F20.5 °F67 %30.06 in10.0 miSouth (170°)4.6 mphClear
5:55 AM30.2 °F20.1 °F66 %30.07 in10.0 miCalmClear
6:55 AM27.0 °F20.7 °F77 %30.07 in10.0 miSSE (160°)4.6 mphClear
7:55 AM27.1 °F21.0 °F78 %30.09 in10.0 miSSW (210°)5.8 mphClear
8:55 AM33.8 °F21.4 °F60 %30.10 in10.0 miSSW (210°)3.5 mphClear
9:55 AM38.1 °F23.4 °F55 %30.12 in10.0 miSSW (200°)6.9 mphClear
10:55 AM43.7 °F23.0 °F44 %30.14 in10.0 miCalmClear
11:55 AM49.8 °F24.1 °F37 %30.12 in10.0 miSouth (190°)5.8 mphClear
12:55 PM54.1 °F25.3 °F33 %30.10 in10.0 miSSW (210°)10.4 mphClear
1:55 PM56.7 °F27.0 °F32 %30.07 in10.0 miSSW (210°)10.4 mphClear
2:55 PM58.5 °F27.3 °F30 %30.07 in10.0 miSSW (200°)9.2 mphClear
3:55 PM59.4 °F27.1 °F29 %30.11 in10.0 miEast (100°)3.5 mphClear
4:55 PM56.7 °F30.0 °F36 %30.16 in10.0 miNNE (20°)20.7 mph26.5 mphClear
5:55 PM48.0 °F28.8 °F47 %30.23 in10.0 miNNE (20°)18.4 mph23.0 mphClear
6:55 PM44.2 °F30.6 °F59 %30.28 in10.0 miNNE (30°)19.6 mph26.5 mphClear
7:55 PM40.1 °F29.7 °F66 %30.32 in10.0 miNNE (20°)16.1 mphClear
8:55 PM36.0 °F27.5 °F71 %30.35 in10.0 miNNE (30°)23.0 mph29.9 mphClear
9:55 PM32.5 °F25.2 °F74 %30.38 in10.0 miNE (40°)13.8 mph20.7 mphClear
10:55 PM30.6 °F23.9 °F76 %30.36 in10.0 miNE (40°)13.8 mphClear
11:55 PM29.1 °F18.7 °F65 %30.37 in10.0 miNE (50°)12.7 mphClear
Hourly data recorded from KFSI, located miles away from Elgin, Oklahoma







STORIES FROM OUR PARTNERS